Regional Weather Roundup
Issued by NWS

Home | Current Version | Previous Version | Graphics & Text | Print | Product List | Glossary On
Versions: 1 2 3 4 5 6 7 8 9 10 11 12 13 14 15 16 17 18 19 20 21 22 23 24 25 26 27 28
000
ASUS45 KTFX 270010
RWRMT
MONTANA REGIONAL WEATHER ROUNDUP
NATIONAL WEATHER SERVICE GREAT FALLS MT
600 PM MDT MON JUN 26 2017

NOTE: "FAIR" INDICATES FEW OR NO CLOUDS BELOW 12000 FEET WITH NO
SIGNIFICANT WEATHER AND/OR OBSTRUCTIONS TO VISIBILITY.

MTZ001>007-043-270100-
WEST OF THE DIVIDE

CITY           SKY/WX    TMP DP  RH WIND       PRES   REMARKS
KALISPELL      MOSUNNY   83  50  31 N9        29.80F
MISSOULA       SUNNY     90  49  24 N14G24    29.76F
BUTTE          SUNNY     88  33  14 W13       29.94F
MULLAN PASS    MOSUNNY   73  44  35 VRB5      30.03F
ANACONDA         N/A     90  34  13 SE8       29.89F
DEER LODGE       N/A     90  36  14 W8        29.88F
EUREKA           N/A     84  48  28 CALM      29.76F
HAMILTON         N/A     91  41  17 W10       29.77F
$$

MTZ008-052>055-270100-
SOUTHWEST MONTANA

CITY           SKY/WX    TMP DP  RH WIND       PRES   REMARKS
BOZEMAN        CLOUDY    92  34  13 NW10      29.87F
DILLON         CLOUDY    83  41  22 S17G25    29.93F
W YELLOWSTONE  CLOUDY    75  37  25 VRB6G13   30.13F
ENNIS          SUNNY     84  37  18 S21G28    30.02F
THREE FORKS      N/A     93  40  15 SW6       29.85F
$$

MTZ009-010-012-014-046-048-049-054-270100-
EAST SLOPES AND CENTRAL MONTANA

CITY           SKY/WX    TMP DP  RH WIND       PRES   REMARKS
CUT BANK       PTSUNNY   80  45  28 NW18G26   29.79F
GREAT FALLS    CLOUDY    93  33  12 W23G29    29.76F
MALMSTROM AFB  MOSUNNY   94  31  11 W17       29.75F
HELENA         SUNNY     96  33  11 W14G25    29.79F HX  91
CHOTEAU          N/A     91  41  17 W10G20    29.81F
$$

MTZ011-013-016-021-045-047-050-051-270100-
NORTH CENTRAL MONTANA

CITY           SKY/WX    TMP DP  RH WIND       PRES   REMARKS
HAVRE          PTSUNNY   89  41  18 SW16G25   29.71F
LEWISTOWN      CLOUDY    83  45  26 CALM      29.83F
N BAR RANCH      N/A     88  37  16 S14G21    29.91F
CHINOOK          N/A     93  43  17 CALM      29.67F
FORT BENTON      N/A    N/A N/A N/A MISG      29.73R
$$

MTZ017>020-022>027-061-062-270100-
NORTHEAST MONTANA

CITY           SKY/WX    TMP DP  RH WIND       PRES   REMARKS
GLASGOW        CLOUDY    87  30  13 S20G28    29.81F
JORDAN           N/A     90  32  12 SE18      29.82F
SIDNEY         SUNNY     85  39  19 S12       29.92F
WOLF POINT     MOSUNNY   86  36  16 SE8G17    29.86F
MALTA          SUNNY     91  37  15 SE15      29.74F
PLENTYWOOD       N/A     81  36  19 SE16G22   29.91F
POPLAR           N/A     84  37  18 SE14      29.88F
$$

MTZ028>42-056>058-270100-
SOUTHCENTRAL AND SOUTHEAST MONTANA

CITY           SKY/WX    TMP DP  RH WIND       PRES   REMARKS
BAKER          SUNNY     83  32  16 S15       29.98F
BILLINGS       PTSUNNY   90  39  16 SE13      29.86F
LIVINGSTON     MOSUNNY   90  44  20 S9        29.88F
MILES CITY     SUNNY     89  30  12 SE15      29.87F
BIG TIMBER     SUNNY     88  39  18 S14G20    29.91F
FORSYTH          N/A     91  36  14 SE10G16   29.84F
ROUNDUP          N/A     92  38  15 SE10      29.77F
$$

REGIONAL REPORTS...DAKOTAS

CITY           SKY/WX    TMP DP  RH WIND       PRES   REMARKS
WILLISTON      MOSUNNY   83  40  21 SE13      29.95F
MINOT          SUNNY     77  40  26 SE8       30.01F
DICKINSON      CLOUDY    76  32  20 S15       30.00F
BEACH            N/A     81  32  17 S13G21    30.00F
CROSBY           N/A     77  45  31 S14       29.96F
TIOGA            N/A     75  41  29 S14G20    30.00F
WATFORD CITY     N/A     77  43  29 SE13      29.95F
BISMARCK       SUNNY     76  43  30 SE13      30.06F
FARGO          SUNNY     73  37  27 W7        30.09F
BUFFALO SD       N/A     80  37  21 SE20      29.96F
RAPID CITY     SUNNY     78  39  24 S13G22    30.05F
$$

REGIONAL REPORTS...WYOMING/IDAHO/WASHINGTON

CITY           SKY/WX    TMP DP  RH WIND       PRES   REMARKS
GILLETTE       SUNNY     86  38  18 SE15      29.99F
SHERIDAN       SUNNY     88  42  20 SE10      29.93F
BUFFALO WY     SUNNY     86  38  18 E9        30.01F
CODY           CLOUDY    88  31  13 S17       29.96F
YELLOWSTONE LA   N/A     73  27  18 W9        30.23F
IDAHO FALLS    SUNNY     91  36  14 S5        29.94F
SALMON         MOSUNNY   84  52  32 NE5       29.81F
BOISE          PTSUNNY   93  48  21 W14       29.78R
SPOKANE        PTSUNNY   88  49  25 S7        29.78F
$$

REGIONAL REPORTS...ALBERTA

CITY           SKY/WX    TMP DP  RH WIND       PRES   REMARKS
EDMONTON       SUNNY     81  59  47 E8        29.58F
CALGARY        PTSUNNY   84  39  20 W6        29.67F
LETHBRIDGE     PTSUNNY   79  50  36 SW24G31   29.72F
MEDICINE HAT   PTSUNNY   90  55  31 SW13      29.65F
WATERTON GATE    N/A     73  43  33 SW20G29     N/A
CARDSTON         N/A     79  46  31 W12G20      N/A
ONEFOUR          N/A     91  37  15 W10G17      N/A
$$

REGIONAL REPORTS...SASKATCHEWAN

CITY           SKY/WX    TMP DP  RH WIND       PRES   REMARKS
SWIFT CURRENT  SUNNY     82  45  26 S17G28    29.76F
REGINA         PTSUNNY   77  46  33 S18G25    29.87F
SASKATOON      PTSUNNY   81  50  34 SE15G23   29.78F
CYPRESS HILLS    N/A     82  37  20 S12G23      N/A
ROCKGLEN         N/A     81  34  18 S21G28      N/A
ASSINIBOIA       N/A     84  54  34 SW8         N/A
$$




USA.gov is the U.S. government's official web portal to all federal, state and local government web resources and services.